EXACTVIEW-1 (ADS-1B)

Last updated on Tue Sep 16 2025 00:02:30 GMT+0000 (Coordinated Universal Time)

1 38709U 12039C 25258.54627388 .00000108 00000+0 66349-4 0 9997 2 38709 98.9581 5.1207 0010035 240.1381 119.8800 14.24850484683590
UTC large
Height (km)
Speed (km/s)
/
Latitude / Longitude
Inclination (degrees)
Orbital Period (minutes)
Azimuth
Elevation
Range (km)
Doppler Factor

Next 0 passes for location: London (51.5072 / 0.1276)

Sorry there are no passes over London.